Regional Weather Roundup
Issued by NWS

Home | Current Version | Previous Version | Graphics & Text | Print | Product List | Glossary On
Versions: 1 2 3 4 5 6 7 8 9 10 11 12 13 14 15 16 17 18 19 20 21 22 23 24 25 26 27 28 29 30 31 32 33 34 35 36 37 38 39 40 41 42 43 44 45 46 47 48 49 50
000
ASUS43 KFSD 011602
RWRSD

WEATHER ROUNDUP FOR SOUTH DAKOTA
NATIONAL WEATHER SERVICE SIOUX FALLS SD
1100 AM CDT SUN MAY 01 2016

NOTE: "FAIR" INDICATES FEW OR NO CLOUDS BELOW 12,000 FEET WITH NO
SIGNIFICANT WEATHER AND/OR OBSTRUCTIONS TO VISIBILITY.


SDZ001>005-009-010-012>017-011700-
NORTHWEST AND NORTH CENTRAL SOUTH DAKOTA

CITY           SKY/WX    TMP DP  RH WIND       PRES   REMARKS
BUFFALO          N/A     53  28  38 NE6       30.27S
FAITH            N/A     52  29  41 NE14      30.31F
MOBRIDGE       SUNNY     53  34  48 N6        30.28F
$$

SDZ012>016-024>037-041>051-057-063-072>074-011700-
SOUTHWEST AND SOUTH CENTRAL SOUTH DAKOTA

CITY           SKY/WX    TMP DP  RH WIND       PRES   REMARKS
RAPID CTY ARPT SUNNY     50  30  46 N14G21    30.32F
PIERRE         SUNNY     52  33  48 N10       30.28S
CUSTER         MOSUNNY   42  23  46 N15G24    30.30R
ELLSWORTH AFB  SUNNY     50  28  43 N12       30.32F
PHILIP         SUNNY     52  34  50 N13       30.30S
PINE RIDGE     SUNNY     48  32  53 N13       30.31R
WINNER         FAIR      51  37  58 N20       30.26S
$$

SDZ004>011-016>023-039-040-011700-
NORTHEAST SOUTH DAKOTA

CITY           SKY/WX    TMP DP  RH WIND       PRES   REMARKS
ABERDEEN       SUNNY     53  31  42 N17       30.28F
WATERTOWN      SUNNY     49  32  52 NE14      30.22S
BROOKINGS      SUNNY     47  36  65 N13       30.20R
SISSETON         N/A     54  29  38 E13G24    30.25F
$$

SDZ017-020-022-023-036>040-048>070-011700-
SOUTHEAST SOUTH DAKOTA

CITY           SKY/WX    TMP DP  RH WIND       PRES   REMARKS
SIOUX FALLS    PTSUNNY   47  38  71 N15       30.19S
HURON          SUNNY     50  33  52 N18       30.24S
MITCHELL       SUNNY     49  38  65 N12       30.23S
YANKTON        CLOUDY    43  37  81 N14       30.19S
$$

ABBREVIATIONS USED IN REMARKS
   TC - TEMPERATURE IN CELSIUS
  WCI - WIND CHILL INDEX
   HX - HEAT INDEX
  VSB - VISIBILITY





USA.gov is the U.S. government's official web portal to all federal, state and local government web resources and services.